This is the latest recevied weather packets stored in our database for station/object IT9CNT. If no packets are shown the sender has not sent any weather packets the latest 10 day(s).
| Time | Temp. | Humidity | Pressure | Rain* | Wind** | Luminosity | Snow |
|---|---|---|---|---|---|---|---|
| 1777717203 | 17.22° C | 67% | 1017.5 hPa | 0 mm | - | - | - |
| 1777717143 | 17.22° C | 66% | 1017.3 hPa | 0 mm | - | - | - |
| 1777717083 | 17.78° C | 68% | 1017.5 hPa | 0 mm | - | - | - |
| 1777717023 | 17.22° C | 68% | 1017.3 hPa | 0 mm | - | - | - |
| 1777716963 | 17.22° C | 67% | 1017.3 hPa | 0 mm | - | - | - |
| 1777716903 | 17.22° C | 68% | 1017.5 hPa | 0 mm | - | - | - |
| 1777716843 | 17.22° C | 67% | 1017.5 hPa | 0 mm | - | - | - |
| 1777716783 | 17.78° C | 67% | 1017.4 hPa | 0 mm | - | - | - |
| 1777716723 | 17.78° C | 68% | 1017.5 hPa | 0 mm | - | - | - |
| 1777716663 | 17.22° C | 69% | 1017.5 hPa | 0 mm | - | - | - |
| 1777716603 | 17.22° C | 68% | 1017.5 hPa | 0 mm | - | - | - |
| 1777716543 | 18.33° C | 68% | 1017.7 hPa | 0 mm | - | - | - |
| 1777716483 | 18.33° C | 68% | 1017.4 hPa | 0 mm | - | - | - |
| 1777716423 | 18.33° C | 69% | 1017.1 hPa | 0 mm | - | - | - |
| 1777716363 | 17.78° C | 69% | 1017.3 hPa | 0 mm | - | - | - |
| 1777716303 | 17.78° C | 69% | 1017.5 hPa | 0 mm | - | - | - |
| 1777716243 | 17.78° C | 69% | 1017.4 hPa | 0 mm | - | - | - |
| 1777716183 | 17.22° C | 70% | 1017.5 hPa | 0 mm | - | - | - |
| 1777716123 | 17.22° C | 69% | 1017.6 hPa | 0 mm | - | - | - |
| 1777716063 | 17.22° C | 70% | 1017.6 hPa | 0 mm | - | - | - |
| 1777716003 | 17.22° C | 70% | 1017.2 hPa | 0 mm | - | - | - |
| 1777715943 | 16.67° C | 70% | 1017.6 hPa | 0 mm | - | - | - |
| 1777715883 | 16.67° C | 70% | 1017.4 hPa | 0 mm | - | - | - |
| 1777715823 | 16.67° C | 69% | 1017.6 hPa | 0 mm | - | - | - |
| 1777715763 | 17.22° C | 69% | 1017.5 hPa | 0 mm | - | - | - |
* Rain latest hour (hover to see other rain measurements)
** Current wind speed in m/s (hover to see current wind gust speed)